ATLAS 5 CENTAUR DEB, 52972

Orbit data source: Space-Track

ATLAS 5 CENTAUR DEB, 52972 is space debris in HEO originally from a launch on Wed, 17 Oct 2018 UTC launched from the Air Force Eastern Test Range (AFETR). Debris objects in space refer to the collection of defunct objects orbiting the Earth. Examples of debris include non-operational satellites, rocket bodies, and fragments generated from explosions, collisions, or faulty payload assembly.

Loading next visibility...
Identifier
52972, 2018-079GW
Orbit
HEO
Country
Flag of USUS
Related business
Flag of USUnited Launch Alliance/Lockheed Martin (US)
Manufacturer
ULA Decatur
Mission
Spacecraft
Bus & Motor
Unknown
Mass
Unknown
Launch date (UTC)
2018-10-17 (7 years ago)
Launch vehicle
Unknown
Launch site
Air Force Eastern Test Range (AFETR)
Object type
Payload
Rocket body
Debris
Shape & HBR
Unknown shape, 1.1 m
Radar Cross Section
RCS unknown

Expand to show TLE details & history
Last TLE update: 5 days ago

TLE from 5 days ago
0 ATLAS 5 CENTAUR DEB
1 52972U 18079GW  25288.84343866 -.00000168  00000-0  00000-0 0  9993
2 52972  12.9720  40.0576 4464976 313.6393  17.0754  1.93859123 29666
Epoch: 2025-10-15T20:14Z
TLE epoch observation values (Epoch: 2025-10-15T20:14:33.100Z)
Latitude
0.00002°
Longitude
71.80455°
Altitude
10,227.364 km
Speed
5.774 km/s
True Right ascension
02h 40m 13s
True Declination
0° 00' 00"
Sunlit
Object was in full shadow at epoch
Visualization orbit readout
Latitude
Unknown
Longitude
Unknown
Altitude
Unknown
Speed
Unknown
Apparent Right ascension
Unknown
Apparent Declination
Unknown
Sunlit
N/A
Visualization observer readout
Local Sidereal Time
15:02:34
Azimuth
Unknown
Elevation
Unknown
Doppler factor
Unknown
Orbital elements
Apogee altitude
32,925.17 km
Perigee altitude
8,661.276 km
Semi-major axis
27,171.36 km
Eccentricity
0.4465
Inclination
12.972°
RAAN
40.0576°
Arg. of periapsis
313.6393°
True anomaly
46.52325°
Mean anomaly
17.0754°
Eccentric anomaly
29.78237°
Mean motion
0.48459 °/min
Orbital period
742.89 mins
BSTAR
0
Loading maneuver chart data...
Computing Atmospheric mass density...

Documentation

Showing up to 5 results
|